| time (UTC) | temp F | wind direction | speed MPH | gust MPH | rain 1hr in | rain 24hr in | rain mn in | humidity % | barometer mb |
| 20260507081639 | 45 | 240 | 16.0 | 0.0 | 0.00 | 0.00 | 0.00 | 93 | |
| 20260507071639 | 43 | 260 | 9.0 | 0.0 | 0.00 | 0.00 | 0.00 | 99 | |
| 20260507061639 | 43 | 270 | 9.0 | 0.0 | 0.00 | 0.00 | 0.00 | 99 | |
| 20260507051639 | 43 | 280 | 10.0 | 0.0 | 0.00 | 0.00 | 0.00 | 93 | |
| 20260507041841 | 43 | 280 | 12.0 | 0.0 | 0.00 | 0.00 | 0.00 | 93 | |
| 20260507031639 | 43 | 270 | 8.0 | 0.0 | 0.00 | 0.00 | 0.00 | 99 | |
| 20260507021637 | 43 | 260 | 13.0 | 0.0 | 0.00 | 0.00 | 0.00 | 99 | |
| 20260507011738 | 45 | 260 | 13.0 | 0.0 | 0.00 | 0.00 | 0.00 | 93 | |
| 20260507001639 | 45 | 250 | 17.0 | 0.0 | 0.00 | 0.00 | 0.00 | 93 | |
| 20260506231639 | 45 | 240 | 12.0 | 0.0 | 0.00 | 0.00 | 0.00 | 99 | |
| 20260506221838 | 46 | 270 | 8.0 | 0.0 | 0.00 | 0.00 | 0.00 | 93 | |
| 20260506211639 | 46 | 300 | 9.0 | 0.0 | 0.00 | 0.00 | 0.00 | 93 | |
| 20260506201639 | 48 | 270 | 9.0 | 0.0 | 0.00 | 0.00 | 0.00 | 87 | |
| 20260506191654 | 48 | 290 | 10.0 | 0.0 | 0.00 | 0.00 | 0.00 | 81 | |
| 20260506181655 | 52 | 240 | 2.0 | 0.0 | 0.00 | 0.00 | 0.00 | 71 | |
| 20260506171638 | 54 | 290 | 6.0 | 0.0 | 0.00 | 0.00 | 0.00 | 66 | |
| 20260506161839 | 54 | 270 | 5.0 | 0.0 | 0.00 | 0.00 | 0.00 | 71 | |
| 20260506151639 | 54 | 260 | 9.0 | 0.0 | 0.00 | 0.00 | 0.00 | 71 | |
| 20260506141639 | 54 | 250 | 13.0 | 20.0 | 0.00 | 0.00 | 0.00 | 71 | |
| 20260506131639 | 50 | 230 | 15.0 | 0.0 | 0.00 | 0.00 | 0.00 | 76 | |
| 20260506121639 | 50 | 240 | 15.0 | 0.0 | 0.00 | 0.00 | 0.00 | 81 | |
| 20260506111640 | 50 | 240 | 15.0 | 0.0 | 0.00 | 0.00 | 0.00 | 81 | |
| 20260506101840 | 48 | 250 | 21.0 | 28.0 | 0.00 | 0.00 | 0.00 | 87 | |
| 20260506091639 | 46 | 250 | 20.0 | 26.0 | 0.00 | 0.00 | 0.00 | 93 |